STARLINK-32420, 61931

Orbit data source: Space-Track

STARLINK-32420, 61931 is a payload satellite owned by SpaceX/Seattle (US) in LEO that was launched on Mon, 11 Nov 2024 UTC via an FALCON 9 launch vehicle from the Air Force Eastern Test Range (AFETR). Payload-class satellites include a variety of spacecraft equipped with specific instruments for various scientific and technological missions. These include communications satellites like Starlink; space stations such as the ISS; scientific satellites like the Hubble; Earth observation satellites from companies like Planet Labs, Umbra, and HawkEye 360; GPS; miniature CubeSats for education and research; and military/defense satellites.

Loading next visibility...
Identifier
61931, 2024-207V
Orbit
LEO
Country
Flag of USUS
Related business
Manufacturer
SpaceX/Seattle
Mission
Operational Commercial Communications
Bus & Motor
STARLINK V2M, Unknown motor
Mass
730 kg wet, ~700 kg dry
Launch date (UTC)
2024-11-11 (1 year ago)
Launch vehicle
FALCON 9
Launch site
Air Force Eastern Test Range (AFETR)
Object type
Payload
Rocket body
Debris
Shape & HBR
Box + 2 Pan, 17.7 m
Radar Cross Section
33.884 m², Large (>1 m²)

Expand to show TLE details & history
Last TLE update: 18 hours ago

TLE from 18 hours ago
0 STARLINK-32420
1 61931U 24207V   26072.86303786  .00035191  00000-0  12813-2 0  9999
2 61931  42.9961 257.8840 0001737 309.2811  50.7886 15.27603112 75362
Epoch: 2026-03-13T20:42Z
TLE epoch observation values (Epoch: 2026-03-13T20:42:46.471Z)
Latitude
-0.00003°
Longitude
135.69787°
Altitude
482.002 km
Speed
7.627 km/s
True Right ascension
17h 11m 32s
True Declination
0° 00' 00"
Sunlit
Object was in daylight at epoch
Visualization orbit readout
Latitude
Unknown
Longitude
Unknown
Altitude
Unknown
Speed
Unknown
Apparent Right ascension
Unknown
Apparent Declination
Unknown
Sunlit
N/A
Visualization observer readout
Local Sidereal Time
19:18:31
Azimuth
Unknown
Elevation
Unknown
Doppler factor
Unknown
Orbital elements
Apogee altitude
486.118 km
Perigee altitude
483.734 km
Semi-major axis
6,863.063 km
Eccentricity
0.00017
Inclination
42.9961°
RAAN
257.884°
Arg. of periapsis
309.2811°
True anomaly
50.80402°
Mean anomaly
50.7886°
Eccentric anomaly
50.79631°
Mean motion
3.81739 °/min
Orbital period
94.31 mins
BSTAR
0.0012813
Loading maneuver chart data...
Computing Atmospheric mass density...
Loading historical data...
Loading historical data...
Loading historical data...
Loading historical data...
Loading historical data...
Loading historical data...
Loading historical data...

Documentation

Showing up to 5 results
|